{"data":{"norad_id":48596,"intl_designator":"2021-041AV","name":"STARLINK-2253","alt_names":[],"object_type":"PAYLOAD","status":"ACTIVE","operator":null,"country":"US","launch_date":"2021-05-15","launch_site_code":"AFETR","launch_vehicle":null,"mission":null,"orbit_class":"UNKNOWN","rcs_meters":null,"size_class":null,"mass_kg":null,"dimensions":null,"purposes":["comms"],"wikipedia_slug":null,"has_3d_model":false,"image_url":null,"decayed_at":null,"tle_current":{"epoch":"2026-09-19T17:33:29.799360Z","epoch_age_seconds":103517,"freshness":"FRESH","line1":"1 48596U 21041AV  26262.73159490 -.00001575  00000+0 -38987-4 0  9994","line2":"2 48596  53.1594 316.5228 0001430  97.7391 262.3773 15.31698348295286","mean_motion":15.31698348,"eccentricity":0.000143,"inclination_deg":53.1594,"raan_deg":316.5228,"arg_perigee_deg":97.7391,"mean_anomaly_deg":262.3773,"bstar":-3.8987e-5,"rev_number":29528,"period_min":94.013289358199,"perigee_km":469.76552964159,"apogee_km":471.72430987064,"semimajor_km":6848.8819197561,"source":"CELESTRAK","updated_at":"2026-09-20T09:00:39.138464Z"}}}